APSTAR-7

Last updated on Thu Jul 03 2025 00:02:45 GMT+0000 (Coordinated Universal Time)

1 38107U 12013A 25183.60641247 -.00000094 00000+0 00000+0 0 9997 2 38107 0.0273 103.4761 0002207 353.5748 118.6446 1.00271481 48300
UTC large
Height (km)
Speed (km/s)
/
Latitude / Longitude
Inclination (degrees)
Orbital Period (minutes)
Azimuth
Elevation
Range (km)
Doppler Factor

Next 0 passes for location: London (51.5072 / 0.1276)

Sorry there are no passes over London.